Location: Niverville
(49.6028°N, 97.0419°W)
Time: 02:21:58
(UTC-05:00)

Amateur Radio Satellites - All Passes

Search period start: 06 May 2016 01:51
Search period end: 07 May 2016 01:51
Location: Niverville, 49.6028°N, 97.0419°W

Satellite Date Start Highest point End Downlink Frequencies (MHz)
Time Altitude Azimuth
SWISSCUBE 06 May 01:52:43 01:57:01 35° 65° (ENE) 02:01:20 437.505
O/OREOS (USA 219) 06 May 02:07:54 02:10:05 13° 262° (W) 02:12:15 437.305
BEESAT 3 06 May 02:22:45 02:26:41 60° 47° (NE) 02:30:36 437.485
BEESAT 06 May 02:25:01 02:29:42 61° 71° (ENE) 02:34:25 436.000
DUCHIFAT 1 06 May 02:29:20 02:32:27 20° 299° (WNW) 02:35:34 145.980
QB50P2 06 May 02:35:04 02:37:47 17° 301° (WNW) 02:40:28 145.880/145.840
BEESAT 2 06 May 02:36:54 02:40:50 52° 46° (NE) 02:44:44 435.950
POLYITAN 1 06 May 02:37:19 02:39:58 16° 301° (WNW) 02:42:37 437.675
POPSAT HIP 1 06 May 02:38:56 02:41:36 16° 301° (WNW) 02:44:14 437.405
QB50P1 06 May 02:41:58 02:44:26 15° 302° (WNW) 02:46:53 145.935-145.965
Oscar 19 06 May 02:51:25 02:56:36 57° 101° (E) 03:01:41 437.125/150
DANDE 06 May 02:54:54 03:01:32 82° 79° (ENE) 03:09:39 436.750
BUGSAT 1 06 May 02:56:16 02:59:25 21° 298° (WNW) 03:02:32 437.445
AIST 2 06 May 03:00:14 03:03:02 17° 26° (NNE) 03:05:49 435.215
Cosmos 2499 06 May 03:05:04 03:11:41 42° 291° (WNW) 03:18:31 435.465 / 435.565
JAS-2 06 May 03:07:42 03:15:31 78° 288° (WNW) 03:23:19 435.910
Gurwin Techsat 1B 06 May 03:14:31 03:19:33 41° 97° (E) 03:24:33 435.225
ITUPSAT 1 06 May 03:22:45 03:27:16 43° 261° (W) 03:31:50 437.325
CUSAT 1 06 May 03:22:52 03:29:42 44° 269° (W) 03:37:09 437.405
SWISSCUBE 06 May 03:30:32 03:34:50 33° 264° (W) 03:39:09 437.505
KKS-1 06 May 03:32:19 03:36:30 40° 68° (ENE) 03:40:44 437.445
GONETS M04 06 May 03:34:33 03:41:23 24° 304° (NW) 03:48:13
STARS 06 May 03:39:41 03:43:27 28° 64° (ENE) 03:47:13 437.465
RS-15 06 May 03:48:12 03:59:29 42° 16° (NNE) 04:11:01 29.354- 29.394
YUBILEINY 06 May 03:58:29 04:03:27 16° 47° (NE) 04:08:26 435.215
BEESAT 3 06 May 04:01:16 04:04:01 18° 246° (WSW) 04:06:45 437.485
MOZHAYETS 4 06 May 04:01:24 04:05:48 49° 70° (ENE) 04:10:12
BEESAT 06 May 04:04:30 04:07:54 19° 269° (W) 04:11:19 436.000
BEESAT 2 06 May 04:15:20 04:18:24 21° 245° (WSW) 04:21:28 435.950
ITAMSAT 1 06 May 04:17:51 04:23:00 61° 102° (ESE) 04:28:08 435.822/435.867
CUBESAT XI-V 06 May 04:22:05 04:24:14 13° 55° (NE) 04:26:24 437.345
Oscar 19 06 May 04:31:22 04:35:34 25° 300° (WNW) 04:39:45 437.125/150
AIST 2 06 May 04:38:08 04:42:17 66° 47° (NE) 04:46:25 435.215
DANDE 06 May 04:38:38 04:43:59 25° 273° (W) 04:50:04 436.750
AO-7 06 May 04:52:06 05:00:02 45° 99° (E) 05:07:57 29.400- 29.500
JAS-2 06 May 04:53:43 04:59:27 23° 309° (NW) 05:05:15 435.910
Gurwin Techsat 1B 06 May 04:54:39 04:59:26 35° 297° (WNW) 05:04:12 435.225
Cosmos 2491 06 May 04:57:37 04:58:05 10° 65° (ENE) 04:58:33 435.465 / 435.565
KKS-1 06 May 05:09:27 05:13:13 26° 266° (W) 05:17:01 437.445
Cosmos 2504 06 May 05:12:13 05:13:01 10° 44° (NE) 05:13:49 435.465 / 435.565
STARS 06 May 05:15:31 05:19:41 39° 262° (W) 05:23:52 437.465
MOZHAYETS 4 06 May 05:39:42 05:43:14 22° 268° (W) 05:46:48
YUBILEINY 06 May 05:54:00 06:02:36 58° 73° (ENE) 06:11:09 435.215
CUBESAT XI-V 06 May 05:56:16 06:00:52 81° 76° (ENE) 06:05:33 437.345
ITAMSAT 1 06 May 05:58:01 06:02:06 24° 301° (WNW) 06:06:12 435.822/435.867
RS-15 06 May 06:01:54 06:14:11 76° 46° (NE) 06:26:35 29.354- 29.394
CUTE-I 06 May 06:16:28 06:17:04 10° 83° (E) 06:17:39 437.470
AIST 2 06 May 06:17:32 06:20:21 18° 247° (WSW) 06:23:09 435.215
HORYU 2 06 May 06:22:24 06:26:50 75° 103° (ESE) 06:31:15 437.375
BRITE-PL 06 May 06:30:12 06:33:56 18° 86° (E) 06:37:35 437.365/2234.400
SO-50 06 May 06:30:18 06:34:04 22° 114° (ESE) 06:37:50 436.795
NOAA 15 06 May 06:43:32 06:47:59 26° 93° (E) 06:52:26 137.62
Cosmos 2491 06 May 06:44:13 06:52:33 49° 88° (E) 07:00:55 435.465 / 435.565
AO-7 06 May 06:44:59 06:52:58 53° 301° (WNW) 07:00:58 29.400- 29.500
ISS 06 May 06:52:29 06:54:56 20° 141° (SE) 06:57:22 145.825
NOAA 18 06 May 06:57:42 07:02:28 30° 95° (E) 07:07:12 137.9125
Cubesat XI-IV 06 May 06:59:04 07:03:24 25° 92° (E) 07:07:44 437.490
Cosmos 2504 06 May 07:01:39 07:08:49 43° 70° (ENE) 07:16:26 435.465 / 435.565
STRAND 1 06 May 07:06:42 07:11:33 46° 67° (ENE) 07:16:25 437.568
PRISM 06 May 07:18:50 07:20:44 13° 57° (ENE) 07:22:40 437.425
GOMX 1 06 May 07:22:27 07:26:46 24° 89° (E) 07:30:55 467.674
LilacSat-2 06 May 07:35:17 07:38:57 44° 98° (E) 07:42:35 437.200
CUBESAT XI-V 06 May 07:36:33 07:38:54 14° 273° (W) 07:41:15 437.345
YUBILEINY 06 May 07:51:18 07:59:05 38° 276° (W) 08:06:51 435.215
CUTE-I 06 May 07:52:50 07:58:09 67° 103° (ESE) 08:03:27 437.470
HORYU 2 06 May 08:00:10 08:02:52 16° 303° (WNW) 08:05:34 437.375
BRITE-PL 06 May 08:07:21 08:13:07 86° 283° (WNW) 08:18:43 437.365/2234.400
SO-50 06 May 08:09:14 08:14:09 69° 313° (NW) 08:19:03 436.795
M-CUBED/EXP-1 PRIME 06 May 08:11:14 08:14:13 21° 97° (E) 08:17:01 437.505
RS-15 06 May 08:14:56 08:25:58 42° 251° (WSW) 08:37:03 29.354- 29.394
CUTE 1.7 + AOD 2 06 May 08:19:56 08:20:14 10° 85° (E) 08:20:32 437.475
NOAA 15 06 May 08:22:53 08:28:04 53° 292° (WNW) 08:33:13 137.62
AUBIESAT-1 06 May 08:26:20 08:29:32 24° 99° (E) 08:32:32 437.475
ISS 06 May 08:27:45 08:31:01 81° 163° (SSE) 08:34:18 145.825
DOVE 4 06 May 08:36:43 08:41:44 51° 98° (E) 08:46:26 437.250
NOAA 18 06 May 08:38:06 08:43:21 48° 294° (WNW) 08:48:34 137.9125
Cubesat XI-IV 06 May 08:38:37 08:43:50 56° 291° (WNW) 08:49:02 437.490
SEEDS 06 May 08:38:56 08:40:38 12° 87° (E) 08:42:20 437.485
AO-7 06 May 08:38:59 08:43:59 18° 324° (NW) 08:49:00 29.400- 29.500
Cosmos 2491 06 May 08:41:03 08:49:29 47° 291° (WNW) 08:57:59 435.465 / 435.565
STRAND 1 06 May 08:46:34 08:50:55 28° 266° (W) 08:55:18 437.568
PRISM 06 May 08:51:22 08:55:27 85° 253° (WSW) 08:59:37 437.425
CINEMA 3 06 May 08:52:38 08:56:23 24° 91° (E) 08:59:59 145.822/145.860
Cosmos 2504 06 May 08:55:06 09:02:18 48° 270° (W) 09:09:59 435.465 / 435.565
HO-68 06 May 08:59:06 09:05:33 35° 95° (E) 09:11:58 435.675
GOMX 1 06 May 08:59:52 09:05:15 60° 289° (WNW) 09:10:23 467.674
AAUSAT CUBESAT 2 06 May 09:02:05 09:03:54 13° 88° (E) 09:05:42 437.432
LilacSat-2 06 May 09:10:18 09:12:59 19° 297° (WNW) 09:15:39 437.200
TIGRISAT 06 May 09:11:45 09:13:13 11° 54° (NE) 09:14:39 435.000
CUBEBUG 2 06 May 09:14:49 09:16:55 13° 87° (E) 09:19:00 437.445
CANX-2 06 May 09:20:31 09:24:37 46° 99° (E) 09:28:41 2200.000
CUTE-I 06 May 09:33:40 09:37:46 23° 302° (WNW) 09:41:51 437.470
ANTELSAT 06 May 09:35:40 09:38:50 19° 60° (ENE) 09:41:59 437.575/2403.000
GONETS M04 06 May 09:43:28 09:48:54 17° 48° (NE) 09:54:17
M-CUBED/EXP-1 PRIME 06 May 09:45:18 09:49:00 38° 298° (WNW) 09:52:25 437.505
BRITE-PL 06 May 09:47:00 09:50:47 19° 305° (NW) 09:54:33 437.365/2234.400
PHONESAT 2.4 06 May 09:48:48 09:49:27 10° 162° (SSE) 09:50:05 2401.200-2431.200
SO-50 06 May 09:51:43 09:55:29 21° 335° (NNW) 09:59:14 436.795
CUTE 1.7 + AOD 2 06 May 09:52:30 09:56:45 86° 103° (ESE) 10:00:59 437.475
Oscar 11 06 May 09:54:34 09:57:41 19° 91° (E) 10:00:47 145.826/435.025
AUBIESAT-1 06 May 10:00:37 10:04:08 32° 300° (WNW) 10:07:24 437.475
ISS 06 May 10:04:23 10:07:37 57° 360° (N) 10:10:51 145.825
NOAA 15 06 May 10:05:24 10:06:43 11° 312° (NW) 10:08:01 137.62
COMPASS 1 06 May 10:08:47 10:12:58 71° 103° (ESE) 10:17:08 437.405
FUNcube-1 06 May 10:11:42 10:15:02 22° 92° (E) 10:18:18 145.935
SEEDS 06 May 10:12:42 10:16:54 79° 284° (WNW) 10:21:06 437.485
DOVE 4 06 May 10:14:53 10:19:08 27° 299° (WNW) 10:23:11 437.250
AIST 1 06 May 10:17:01 10:19:03 13° 61° (ENE) 10:21:03
Cubesat XI-IV 06 May 10:21:11 10:22:50 11° 311° (NW) 10:24:30 437.490
NOAA 18 06 May 10:21:55 10:22:47 10° 315° (NW) 10:23:39 137.9125
QB50P2 06 May 10:21:58 10:23:47 13° 56° (NE) 10:25:35 145.880/145.840
POLYITAN 1 06 May 10:24:06 10:25:58 13° 56° (ENE) 10:27:52 437.675
POPSAT HIP 1 06 May 10:25:35 10:27:29 13° 56° (ENE) 10:29:24 437.405
QB50P1 06 May 10:28:10 10:30:17 14° 57° (ENE) 10:32:25 145.935-145.965
UNISAT 6 06 May 10:28:32 10:33:01 53° 70° (ENE) 10:37:25 437.425
CINEMA 3 06 May 10:29:21 10:33:46 44° 291° (WNW) 10:37:57 145.822/145.860
UWE-3 06 May 10:33:56 10:38:08 56° 100° (E) 10:42:13 435.000/436.395/437.385
AAUSAT CUBESAT 2 06 May 10:35:45 10:39:55 75° 286° (WNW) 10:44:04 437.432
GOMX 1 06 May 10:40:04 10:42:13 12° 310° (NW) 10:44:21 467.674
TIGRISAT 06 May 10:44:32 10:49:08 71° 73° (ENE) 10:53:38 435.000
Cosmos 2491 06 May 10:45:25 10:49:12 13° 318° (NW) 10:53:00 435.465 / 435.565
HO-68 06 May 10:46:38 10:53:37 58° 295° (WNW) 11:00:35 435.675
CUBEBUG 2 06 May 10:49:49 10:54:09 72° 286° (WNW) 10:58:19 437.445
ZACube-1 06 May 10:55:37 10:59:49 65° 102° (ESE) 11:03:56 437.345
Cosmos 2499 06 May 10:56:20 11:02:13 23° 59° (ENE) 11:08:23 435.465 / 435.565
CANX-2 06 May 10:56:59 11:00:13 22° 297° (WNW) 11:03:27 2200.000
NANOSAT C BR1 06 May 10:59:08 11:02:34 24° 63° (ENE) 11:06:00 145.865
ANTELSAT 06 May 11:10:34 11:15:08 65° 258° (WSW) 11:19:39 437.575/2403.000
DELFI C3 06 May 11:16:54 11:20:53 64° 101° (ESE) 11:24:51 145.870
PHONESAT 2.4 06 May 11:23:31 11:25:32 16° 179° (S) 11:27:34 2401.200-2431.200
HUMSAT D 06 May 11:24:36 11:28:23 35° 97° (E) 11:32:08 437.325/437.525
Oscar 11 06 May 11:29:56 11:34:08 51° 289° (WNW) 11:38:18 145.826/435.025
CUTE 1.7 + AOD 2 06 May 11:30:00 11:31:59 13° 303° (WNW) 11:33:59 437.475
SO-50 06 May 11:35:16 11:37:45 14° 359° (N) 11:40:12 436.795
GONETS M04 06 May 11:39:13 11:47:56 62° 75° (ENE) 11:56:32
ISS 06 May 11:40:57 11:44:13 85° 199° (SSW) 11:47:30 145.825
JAS-2 06 May 11:41:36 11:46:16 21° 49° (NE) 11:51:16 435.910
COMPASS 1 06 May 11:45:37 11:48:03 15° 301° (WNW) 11:50:28 437.405
FUNcube-1 06 May 11:47:32 11:51:28 40° 291° (WNW) 11:55:20 145.935
DUCHIFAT 1 06 May 11:48:38 11:52:51 65° 73° (ENE) 11:57:06 145.980
SEEDS 06 May 11:50:40 11:51:54 11° 304° (NW) 11:53:07 437.485
AO-85 06 May 11:52:11 11:56:15 22° 112° (ESE) 12:00:17 145.980
AIST 1 06 May 11:52:53 11:57:20 87° 263° (W) 12:01:45
QB50P2 06 May 11:54:37 11:58:55 85° 74° (ENE) 12:03:14 145.880/145.840
POLYITAN 1 06 May 11:56:50 12:01:08 87° 75° (ENE) 12:05:27 437.675
POPSAT HIP 1 06 May 11:58:20 12:02:38 87° 73° (ENE) 12:06:56 437.405
AISAT 06 May 12:00:22 12:02:58 15° 89° (E) 12:05:33 437.250
QB50P1 06 May 12:01:10 12:05:28 86° 261° (W) 12:09:47 145.935-145.965
UNISAT 6 06 May 12:06:33 12:10:00 21° 268° (W) 12:13:26 437.425
UWE-3 06 May 12:11:17 12:14:13 18° 300° (WNW) 12:17:06 435.000/436.395/437.385
BUGSAT 1 06 May 12:13:40 12:17:52 61° 72° (ENE) 12:22:05 437.445
AAUSAT CUBESAT 2 06 May 12:13:50 12:14:41 11° 304° (NW) 12:15:31 437.432
AO-7 06 May 12:21:53 12:22:13 10° 20° (NNE) 12:22:33 29.400- 29.500
TIGRISAT 06 May 12:23:31 12:26:18 16° 271° (W) 12:29:03 435.000
CUBEBUG 1 06 May 12:25:04 12:28:43 24° 93° (E) 12:32:21 437.445
CUBEBUG 2 06 May 12:29:04 12:29:57 11° 306° (NW) 12:30:50 437.445
ZACube-1 06 May 12:33:03 12:35:39 16° 301° (WNW) 12:38:14 437.345
NANOSAT C BR1 06 May 12:34:02 12:38:06 42° 262° (W) 12:42:12 145.865
ESTCUBE 1 06 May 12:34:09 12:38:27 40° 98° (E) 12:42:44 437.505/2401.250
Oscar 19 06 May 12:35:00 12:38:56 22° 58° (ENE) 12:42:54 437.125/150
HO-68 06 May 12:35:52 12:39:56 16° 317° (NW) 12:44:01 435.675
UKube-1 06 May 12:44:55 12:48:39 27° 95° (E) 12:52:20 .
DX 1 06 May 12:45:49 12:49:49 33° 96° (E) 12:53:47 434.975-435.025
Cosmos 2499 06 May 12:48:39 12:56:26 87° 81° (E) 13:04:50 435.465 / 435.565
DELFI C3 06 May 12:52:57 12:55:19 15° 300° (WNW) 12:57:41 145.870
PHONESAT 2.4 06 May 13:00:28 13:01:39 12° 196° (SSW) 13:02:49 2401.200-2431.200
HUMSAT D 06 May 13:00:31 13:03:54 25° 295° (WNW) 13:07:16 437.325/437.525
Gurwin Techsat 1B 06 May 13:02:25 13:05:57 18° 55° (NE) 13:09:29 435.225
VELOX 1 06 May 13:02:46 13:07:11 54° 101° (E) 13:11:33 145.980
SPROUT 06 May 13:07:15 13:10:53 26° 94° (E) 13:14:28 437.525
50 SAT 06 May 13:14:08 13:17:49 89° 111° (ESE) 13:21:29 437.505
SO-50 06 May 13:16:25 13:20:02 20° 24° (NNE) 13:23:34 436.795
ISS 06 May 13:17:48 13:20:22 21° 218° (SW) 13:22:54 145.825
JAS-2 06 May 13:23:49 13:30:07 79° 72° (ENE) 13:37:21 435.910
DUCHIFAT 1 06 May 13:26:30 13:29:00 15° 271° (W) 13:31:31 145.980
TISAT 1 06 May 13:27:16 13:29:22 13° 88° (E) 13:31:28 437.305
AO-85 06 May 13:30:47 13:36:17 80° 311° (NW) 13:41:38 145.980
AIST 1 06 May 13:33:23 13:34:10 10° 280° (W) 13:34:57
QB50P2 06 May 13:33:49 13:35:20 12° 273° (W) 13:36:52 145.880/145.840
AISAT 06 May 13:35:28 13:39:58 71° 287° (WNW) 13:44:24 437.250
POLYITAN 1 06 May 13:36:07 13:37:34 11° 273° (W) 13:39:00 437.675
GONETS M04 06 May 13:36:38 13:44:17 36° 277° (W) 13:51:52
POPSAT HIP 1 06 May 13:37:39 13:39:03 11° 273° (W) 13:40:26 437.405
QB50P1 06 May 13:41:09 13:41:55 10° 274° (W) 13:42:41 145.935-145.965
BUGSAT 1 06 May 13:50:57 13:53:38 16° 270° (W) 13:56:21 437.445
CUBEBUG 1 06 May 14:00:58 14:05:11 42° 292° (WNW) 14:09:22 437.445
ITAMSAT 1 06 May 14:02:16 14:06:22 25° 59° (ENE) 14:10:29 435.822/435.867
AO-7 06 May 14:05:40 14:12:09 27° 46° (NE) 14:18:40 29.400- 29.500
ESTCUBE 1 06 May 14:11:17 14:15:08 28° 296° (WNW) 14:18:58 437.505/2401.250
Oscar 19 06 May 14:12:39 14:17:48 67° 258° (WSW) 14:23:02 437.125/150
UKube-1 06 May 14:20:46 14:24:47 37° 293° (WNW) 14:28:46 .
DX 1 06 May 14:22:05 14:25:58 31° 295° (WNW) 14:29:50 434.975-435.025
BEESAT 06 May 14:23:08 14:24:27 11° 86° (E) 14:25:45 436.000
PCSat 06 May 14:29:27 14:32:13 14° 103° (ESE) 14:34:59 145.827
Gurwin Techsat 1B 06 May 14:39:55 14:45:15 86° 254° (WSW) 14:50:37 435.225
VELOX 1 06 May 14:39:57 14:43:18 21° 299° (WNW) 14:46:39 145.980
SPROUT 06 May 14:42:58 14:46:57 37° 292° (WNW) 14:50:54 437.525
Cosmos 2499 06 May 14:43:00 14:48:41 23° 281° (W) 14:54:39 435.465 / 435.565
O/OREOS (USA 219) 06 May 14:43:20 14:47:37 40° 109° (ESE) 14:51:55 437.305
50 SAT 06 May 14:50:26 14:51:01 10° 302° (WNW) 14:51:34 437.505
CUSAT 1 06 May 14:50:36 14:54:03 26° 85° (E) 14:58:22 437.405
SO-50 06 May 14:56:37 15:01:25 66° 47° (NE) 15:06:02 436.795
TISAT 1 06 May 15:01:19 15:05:33 72° 287° (WNW) 15:09:44 437.305
JAS-2 06 May 15:11:11 15:16:06 23° 275° (W) 15:21:29 435.910
AO-85 06 May 15:13:06 15:17:34 25° 332° (NNW) 15:21:52 145.980
AISAT 06 May 15:14:13 15:15:38 11° 307° (NW) 15:17:03 437.250
ITUPSAT 1 06 May 15:18:36 15:22:58 34° 96° (E) 15:27:20 437.325
SWISSCUBE 06 May 15:25:38 15:30:13 44° 99° (E) 15:34:46 437.505
ITAMSAT 1 06 May 15:40:23 15:45:29 59° 259° (WSW) 15:50:37 435.822/435.867
HORYU 2 06 May 15:49:51 15:52:47 17° 58° (ENE) 15:55:42 437.375
AO-7 06 May 15:55:37 16:03:55 84° 68° (ENE) 16:12:16 29.400- 29.500
BEESAT 06 May 15:58:15 16:03:02 79° 104° (ESE) 16:07:48 436.000
PCSat 06 May 16:09:19 16:14:44 79° 123° (ESE) 16:20:12 145.827
DANDE 06 May 16:10:52 16:14:08 59° 97° (E) 16:18:28 436.750
O/OREOS (USA 219) 06 May 16:23:03 16:27:08 31° 308° (NW) 16:31:13 437.305
Gurwin Techsat 1B 06 May 16:23:17 16:26:00 14° 274° (W) 16:28:46 435.225
NOAA 15 06 May 16:31:50 16:34:04 13° 50° (NE) 16:36:19 137.62
CUSAT 1 06 May 16:31:55 16:35:52 39° 294° (WNW) 16:41:01 437.405
SO-50 06 May 16:37:52 16:41:28 22° 247° (WSW) 16:44:57 436.795
TISAT 1 06 May 16:39:32 16:40:26 11° 306° (NW) 16:41:19 437.305
Cosmos 2491 06 May 16:48:48 16:56:30 32° 61° (ENE) 17:04:05 435.465 / 435.565
Cubesat XI-IV 06 May 16:49:15 16:51:19 12° 49° (NE) 16:53:23 437.490
NOAA 18 06 May 16:50:22 16:53:49 17° 52° (NE) 16:57:16 137.9125
KKS-1 06 May 16:55:05 16:59:23 43° 99° (E) 17:03:38 437.445
ITUPSAT 1 06 May 16:56:30 17:00:48 34° 295° (WNW) 17:05:06 437.325
AO-85 06 May 16:56:51 16:59:49 15° 355° (N) 17:02:41 145.980
STARS 06 May 17:00:32 17:04:19 27° 95° (E) 17:08:04 437.465
SWISSCUBE 06 May 17:03:50 17:07:50 28° 298° (WNW) 17:11:51 437.505
YUBILEINY 06 May 17:10:48 17:13:51 12° 68° (ENE) 17:16:55 435.215
HORYU 2 06 May 17:24:25 17:28:52 70° 257° (WSW) 17:33:20 437.375
MOZHAYETS 4 06 May 17:28:46 17:33:21 65° 102° (ESE) 17:37:54
M-CUBED/EXP-1 PRIME 06 May 17:29:17 17:31:04 12° 49° (NE) 17:32:50 437.505
BEESAT 06 May 17:37:13 17:40:16 17° 303° (WNW) 17:43:18 436.000
CUTE-I 06 May 17:40:20 17:44:48 28° 61° (ENE) 17:49:17 437.470
AUBIESAT-1 06 May 17:43:44 17:45:52 13° 50° (NE) 17:47:57 437.475
BRITE-PL 06 May 17:44:47 17:49:06 28° 61° (ENE) 17:53:41 437.365/2234.400
CUBESAT XI-V 06 May 17:49:33 17:52:23 16° 88° (E) 17:55:12 437.345
HO-68 06 May 17:50:25 17:52:56 12° 37° (NE) 17:55:26 435.675
AO-7 06 May 17:51:06 17:57:40 26° 269° (W) 18:04:18 29.400- 29.500
PCSat 06 May 17:54:08 17:58:44 27° 325° (NW) 18:03:21 145.827
BEESAT 3 06 May 17:55:20 17:58:31 24° 117° (ESE) 18:01:44 437.485
DANDE 06 May 17:55:48 17:57:51 14° 306° (NW) 18:00:11 436.750
NOAA 15 06 May 18:07:40 18:12:52 63° 70° (ENE) 18:18:07 137.62
DOVE 4 06 May 18:10:48 18:13:48 16° 54° (NE) 18:16:49 437.250
BEESAT 2 06 May 18:11:08 18:14:11 21° 115° (ESE) 18:17:16 435.950
LilacSat-2 06 May 18:21:13 18:24:53 42° 70° (ENE) 18:28:33 437.200
Cubesat XI-IV 06 May 18:25:08 18:30:22 60° 70° (ENE) 18:35:38 437.490
NOAA 18 06 May 18:28:12 18:33:43 83° 72° (ENE) 18:39:15 137.9125
KKS-1 06 May 18:32:05 18:35:46 25° 298° (WNW) 18:39:25 437.445
GOMX 1 06 May 18:33:59 18:38:48 38° 65° (ENE) 18:43:49 467.674
STARS 06 May 18:36:42 18:40:47 37° 293° (WNW) 18:44:50 437.465
AO-85 06 May 18:38:33 18:42:15 19° 20° (NNE) 18:45:43 145.980
Cosmos 2491 06 May 18:45:25 18:54:13 74° 265° (W) 19:02:55 435.465 / 435.565
YUBILEINY 06 May 19:00:10 19:08:35 57° 90° (E) 19:17:01 435.215
M-CUBED/EXP-1 PRIME 06 May 19:00:13 19:04:52 64° 66° (ENE) 19:09:21 437.505
MOZHAYETS 4 06 May 19:06:54 19:10:05 19° 300° (WNW) 19:13:16
AUBIESAT-1 06 May 19:15:05 19:19:41 73° 68° (ENE) 19:24:07 437.475
STRAND 1 06 May 19:15:21 19:16:28 11° 84° (E) 19:17:34 437.568
CUTE 1.7 + AOD 2 06 May 19:15:46 19:18:01 14° 58° (ENE) 19:20:15 437.475
CUTE-I 06 May 19:19:26 19:24:36 52° 260° (W) 19:29:49 437.470
BRITE-PL 06 May 19:22:19 19:27:15 53° 262° (W) 19:32:36 437.365/2234.400
CUBESAT XI-V 06 May 19:25:36 19:30:19 74° 287° (WNW) 19:35:00 437.345
COMPASS 1 06 May 19:31:25 19:32:43 11° 56° (NE) 19:34:01 437.405
BEESAT 3 06 May 19:32:11 19:36:01 47° 316° (NW) 19:39:52 437.485
HO-68 06 May 19:32:15 19:38:51 42° 60° (ENE) 19:45:27 435.675
SEEDS 06 May 19:34:42 19:37:15 16° 60° (ENE) 19:39:50 437.485
PCSat 06 May 19:41:32 19:44:04 13° 350° (N) 19:46:36 145.827
DOVE 4 06 May 19:45:25 19:50:39 78° 74° (ENE) 19:56:00 437.250
Cosmos 2504 06 May 19:47:06 19:52:56 28° 82° (E) 19:58:48 435.465 / 435.565
BEESAT 2 06 May 19:47:51 19:51:45 53° 314° (NW) 19:55:42 435.950
NOAA 15 06 May 19:49:04 19:53:05 22° 269° (W) 19:57:09 137.62
AAUSAT CUBESAT 2 06 May 19:56:29 19:59:00 16° 60° (ENE) 20:01:32 437.432
LilacSat-2 06 May 19:56:34 19:59:23 19° 268° (W) 20:02:14 437.200
CINEMA 3 06 May 19:57:30 20:02:09 39° 67° (ENE) 20:06:44 145.822/145.860
UWE-3 06 May 20:01:26 20:03:18 12° 56° (NE) 20:05:11 435.000/436.395/437.385
Cubesat XI-IV 06 May 20:06:43 20:10:52 23° 269° (W) 20:15:03 437.490
NOAA 18 06 May 20:11:34 20:15:04 17° 271° (W) 20:18:36 137.9125
GOMX 1 06 May 20:12:01 20:16:51 38° 265° (W) 20:21:56 467.674
CUBEBUG 2 06 May 20:16:15 20:19:50 22° 62° (ENE) 20:23:22 437.445
CANX-2 06 May 20:17:14 20:21:21 57° 72° (ENE) 20:25:29 2200.000
AIST 2 06 May 20:17:56 20:21:36 31° 119° (ESE) 20:25:18 435.215
AO-85 06 May 20:18:55 20:23:50 55° 44° (NE) 20:28:18 145.980
ZACube-1 06 May 20:21:50 20:23:54 13° 57° (ENE) 20:25:58 437.345
RS-15 06 May 20:33:23 20:42:13 27° 101° (E) 20:51:21 29.354- 29.394
M-CUBED/EXP-1 PRIME 06 May 20:36:22 20:39:43 19° 263° (W) 20:43:01 437.505
Cosmos 2491 06 May 20:44:10 20:49:26 18° 288° (WNW) 20:54:42 435.465 / 435.565
CUTE 1.7 + AOD 2 06 May 20:49:06 20:53:19 78° 258° (WSW) 20:57:32 437.475
STRAND 1 06 May 20:51:27 20:56:34 72° 103° (ESE) 21:01:41 437.568
AUBIESAT-1 06 May 20:51:41 20:54:34 16° 264° (W) 20:57:23 437.475
Oscar 11 06 May 20:53:20 20:56:54 26° 64° (ENE) 21:00:29 145.826/435.025
YUBILEINY 06 May 20:57:41 21:05:45 40° 293° (WNW) 21:13:52 435.215
COMPASS 1 06 May 21:03:28 21:07:36 82° 74° (ENE) 21:11:45 437.405
CUBESAT XI-V 06 May 21:04:58 21:06:54 12° 306° (NW) 21:08:50 437.345
SEEDS 06 May 21:08:22 21:12:31 66° 259° (WSW) 21:16:41 437.485
FUNcube-1 06 May 21:10:57 21:14:55 32° 66° (ENE) 21:18:48 145.935
BEESAT 3 06 May 21:12:34 21:14:40 14° 338° (NNW) 21:16:44 437.485
HO-68 06 May 21:19:35 21:26:29 50° 260° (W) 21:33:26 435.675
DOVE 4 06 May 21:25:27 21:28:57 18° 273° (W) 21:32:30 437.250
PCSat 06 May 21:26:49 21:29:52 15° 17° (NNE) 21:32:56 145.827
BEESAT 2 06 May 21:28:10 21:30:29 15° 336° (NNW) 21:32:49 435.950
AAUSAT CUBESAT 2 06 May 21:29:57 21:34:02 65° 258° (WSW) 21:38:09 437.432
UWE-3 06 May 21:34:29 21:39:04 79° 75° (ENE) 21:43:34 435.000/436.395/437.385
CINEMA 3 06 May 21:34:48 21:39:19 33° 265° (W) 21:43:48 145.822/145.860
Cosmos 2504 06 May 21:38:39 21:45:45 64° 284° (WNW) 21:52:57 435.465 / 435.565
CUBEBUG 2 06 May 21:51:33 21:56:09 54° 260° (W) 22:00:41 437.445
CANX-2 06 May 21:54:51 21:57:35 17° 270° (W) 22:00:20 2200.000
ZACube-1 06 May 21:55:04 21:59:33 87° 82° (E) 22:03:59 437.345
AIST 2 06 May 21:56:06 22:00:01 40° 318° (NW) 22:03:57 435.215
AO-85 06 May 22:00:01 22:03:59 26° 246° (WSW) 22:07:40 145.980
PRISM 06 May 22:03:46 22:07:58 85° 101° (ESE) 22:12:09 437.425
DELFI C3 06 May 22:06:51 22:10:45 67° 74° (ENE) 22:14:42 145.870
HUMSAT D 06 May 22:19:46 22:23:45 44° 70° (ENE) 22:27:43 437.325/437.525
Oscar 11 06 May 22:28:51 22:32:54 39° 263° (W) 22:36:57 145.826/435.025
VELOX 1 06 May 22:30:41 22:32:40 13° 55° (NE) 22:34:40 145.980
STRAND 1 06 May 22:31:33 22:35:16 21° 303° (WNW) 22:38:58 437.568
RS-15 06 May 22:41:28 22:52:53 85° 126° (SE) 23:05:00 29.354- 29.394
COMPASS 1 06 May 22:42:26 22:43:46 11° 273° (W) 22:45:05 437.405
FUNcube-1 06 May 22:47:09 22:51:09 32° 264° (W) 22:55:06 145.935
GONETS M04 06 May 22:55:01 22:58:59 14° 69° (ENE) 23:02:57
ANTELSAT 06 May 22:58:46 23:01:50 19° 91° (E) 23:04:52 437.575/2403.000
AISAT 06 May 23:01:30 23:05:05 24° 62° (ENE) 23:08:40 437.250
YUBILEINY 06 May 23:03:44 23:05:46 11° 322° (NW) 23:07:47 435.215
PCSat 06 May 23:09:51 23:14:54 36° 41° (NE) 23:19:55 145.827
O/OREOS (USA 219) 06 May 23:09:52 23:13:41 26° 49° (NE) 23:17:27 437.305
UWE-3 06 May 23:13:42 23:16:03 14° 272° (W) 23:18:25 435.000/436.395/437.385
CUBEBUG 1 06 May 23:24:56 23:28:55 35° 66° (ENE) 23:32:58 437.445
ZACube-1 06 May 23:34:43 23:36:27 12° 273° (W) 23:38:11 437.345
Cosmos 2504 06 May 23:37:08 23:40:54 15° 309° (NW) 23:44:42 435.465 / 435.565
CUSAT 1 06 May 23:37:09 23:39:40 12° 47° (NE) 23:42:18 437.405
AIST 2 06 May 23:37:31 23:39:36 13° 341° (NNW) 23:41:41 435.215
ESTCUBE 1 06 May 23:37:39 23:42:04 62° 71° (ENE) 23:46:32 437.505/2401.250
QB50P2 06 May 23:38:04 23:38:46 10° 86° (E) 23:39:28 145.880/145.840
POLYITAN 1 06 May 23:40:11 23:41:00 10° 86° (E) 23:41:49 437.675
PRISM 06 May 23:40:40 23:42:41 13° 303° (WNW) 23:44:43 437.425
POPSAT HIP 1 06 May 23:41:27 23:42:21 11° 86° (E) 23:43:15 437.405
UKube-1 06 May 23:43:20 23:47:23 40° 67° (ENE) 23:51:27 .
QB50P1 06 May 23:43:44 23:45:11 11° 87° (E) 23:46:37 145.935-145.965
DELFI C3 06 May 23:44:17 23:46:06 13° 272° (W) 23:47:56 145.870
Cosmos 2499 06 May 23:44:19 23:46:20 11° 71° (ENE) 23:48:20 435.465 / 435.565
DX 1 06 May 23:45:11 23:49:25 50° 69° (ENE) 23:53:40 434.975-435.025
UNISAT 6 06 May 23:52:29 23:56:47 62° 101° (ESE) 00:01:00 437.425
HUMSAT D 06 May 23:56:25 23:59:36 21° 268° (W) 00:02:47 437.325/437.525
50 SAT 06 May 23:56:35 00:00:14 79° 75° (ENE) 00:03:53 437.505
VELOX 1 07 May 00:03:59 00:08:26 82° 73° (ENE) 00:12:55 145.980
SPROUT 07 May 00:04:46 00:08:41 35° 67° (ENE) 00:12:38 437.525
TIGRISAT 07 May 00:08:24 00:12:44 84° 104° (ESE) 00:17:00 435.000
NANOSAT C BR1 07 May 00:14:26 00:17:46 22° 93° (E) 00:21:05 145.865
TISAT 1 07 May 00:22:44 00:25:47 19° 61° (ENE) 00:28:49 437.305
AIST 1 07 May 00:26:32 00:30:39 43° 93° (E) 00:34:48
JAS-2 07 May 00:30:53 00:33:46 12° 77° (ENE) 00:36:39 435.910
BEESAT 3 07 May 00:30:57 00:33:27 16° 26° (NNE) 00:35:56 437.485
ANTELSAT 07 May 00:34:41 00:38:54 52° 290° (WNW) 00:43:02 437.575/2403.000
AISAT 07 May 00:37:01 00:41:19 47° 261° (W) 00:45:40 437.250
GONETS M04 07 May 00:45:14 00:53:52 61° 91° (E) 01:02:29
BEESAT 2 07 May 00:47:11 00:49:35 15° 25° (NNE) 00:51:59 435.950
O/OREOS (USA 219) 07 May 00:48:57 00:53:20 49° 250° (WSW) 00:57:40 437.305
PCSat 07 May 00:53:15 00:58:30 51° 243° (WSW) 01:03:44 145.827
RS-15 07 May 00:55:33 01:06:43 48° 336° (NNW) 01:18:26 29.354- 29.394
ITUPSAT 1 07 May 00:55:35 00:57:07 11° 52° (NE) 00:58:39 437.325
DANDE 07 May 00:59:32 01:04:18 20° 59° (ENE) 01:09:43 436.750
CUBEBUG 1 07 May 01:01:22 01:05:15 30° 265° (W) 01:09:10 437.445
SWISSCUBE 07 May 01:01:24 01:03:51 14° 54° (NE) 01:06:17 437.505
DUCHIFAT 1 07 May 01:04:04 01:08:16 65° 102° (ESE) 01:12:26 145.980
QB50P2 07 May 01:10:59 01:15:15 88° 97° (E) 01:19:29 145.880/145.840
POLYITAN 1 07 May 01:13:13 01:17:29 89° 115° (ESE) 01:21:41 437.675
POPSAT HIP 1 07 May 01:14:32 01:18:49 89° 128° (SE) 01:23:02 437.405
ESTCUBE 1 07 May 01:16:20 01:19:18 17° 270° (W) 01:22:18 437.505/2401.250
CUSAT 1 07 May 01:16:46 01:23:41 43° 68° (ENE) 01:31:16 437.405
QB50P1 07 May 01:17:19 01:21:34 84° 288° (WNW) 01:25:48 145.935-145.965
AIST 2 07 May 01:19:40 01:19:54 10° 5° (N) 01:20:09 435.215
UKube-1 07 May 01:20:00 01:23:34 25° 266° (W) 01:27:10 .
DX 1 07 May 01:22:35 01:25:53 21° 268° (W) 01:29:12 434.975-435.025
BUGSAT 1 07 May 01:26:32 01:30:42 56° 101° (E) 01:34:46 437.445
UNISAT 6 07 May 01:30:11 01:33:04 18° 301° (WNW) 01:35:56 437.425
Cosmos 2499 07 May 01:30:52 01:37:45 62° 93° (E) 01:44:51 435.465 / 435.565
BEESAT 07 May 01:32:30 01:36:11 23° 60° (ENE) 01:39:52 436.000
SPROUT 07 May 01:40:57 01:44:42 28° 265° (W) 01:48:28 437.525
VELOX 1 07 May 01:43:27 01:45:30 13° 273° (W) 01:47:34 145.980
TIGRISAT 07 May 01:46:38 01:48:49 14° 303° (WNW) 01:50:59 435.000
